Regional Weather Roundup
Issued by NWS

Home | Current Version | Previous Version | Graphics & Text | Print | Product List | Glossary Off
Versions: 1 2 3 4 5 6 7 8 9 10 11 12 13 14 15 16 17 18 19 20 21 22 23 24 25 26 27 28 29 30 31 32 33 34 35 36 37 38 39 40 41 42 43 44 45 46 47 48 49 50

740
ASUS43 KTOP 231808
RWRKS

WEATHER ROUNDUP FOR KANSAS
NATIONAL WEATHER SERVICE GOODLAND KS
100 PM CDT SAT JUL 23 2016

NOTE:  "FAIR" INDICATES FEW OR NO CLOUDS BELOW 12,000 FEET WITH NO
SIGNIFICANT WEATHER AND/OR OBSTRUCTIONS TO VISIBILITY.

KSZ001>006-013>018-027>032-041>047-231900-
NORTHWEST KANSAS

CITY           SKY/WX    TMP DP  RH WIND       PRES   REMARKS
GOODLAND       SUNNY     94  61  33 NW9       29.95F
6HR MIN TEMP:  68; 6HR MAX TEMP:  95;

HAYS           CLOUDY    99  64  32 S18G25    29.85F HX 101
HILL CITY      SUNNY     94  63  35 SW13      29.87R HX  95
6HR MIN TEMP:  73; 6HR MAX TEMP:  94; 6HR PCP: TRACE;

RUSSELL        CLOUDY    95  63  34 S22       29.85F HX  96
6HR MIN TEMP:  76; 6HR MAX TEMP:  97;

$$

KSZ061>065-074>080-084>089-231900-
SOUTHWEST KANSAS

CITY           SKY/WX    TMP DP  RH WIND       PRES   REMARKS
DODGE CITY     SUNNY     97  60  29 S22G32    29.92F HX  97
6HR MIN TEMP:  72; 6HR MAX TEMP:  97;

ELKHART          N/A     98  58  26 SW13        N/A  HX  97
GARDEN CITY    SUNNY     95  61  32 S20       29.91F HX  95
6HR MIN TEMP:  69; 6HR MAX TEMP:  95;

GREAT BEND     CLOUDY    99  63  30 S15G24    29.87S HX 100
LIBERAL        SUNNY     99  57  25 S21       29.95F HX  97
PRATT          MOSUNNY   99  58  25 S16       29.91F HX  98
6HR MIN TEMP:  72; 6HR MAX TEMP:  99;

$$

KSZ066>073-081>083-090>101-231900-
SOUTHEAST KANSAS

CITY           SKY/WX    TMP DP  RH WIND       PRES   REMARKS
CHANUTE        MOSUNNY   93  71  48 S10       29.94F HX 100
6HR MIN TEMP:  76; 6HR MAX TEMP:  94;

COFFEYVILLE    SUNNY     97  70  41 S10       29.93F HX 103
6HR MIN TEMP:  75; 6HR MAX TEMP:  98;

HUTCHINSON     MOSUNNY  100  65  31 S21G29    29.89F HX 103
6HR MIN TEMP:  75; 6HR MAX TEMP: 100;

MEDICINE LODGE   N/A    101  59  24 SW22G29   29.88F HX 101
NEWTON         PTSUNNY   95  69  42 S17       29.91F HX 100
PARSONS        SUNNY     94  70  45 S8        29.95F HX 100
6HR MIN TEMP:  78; 6HR MAX TEMP:  96; 6HR PCP: TRACE;

WICHITA INTL   PTSUNNY  100  66  32 S15G22    29.91F HX 104
6HR MIN TEMP:  75; 6HR MAX TEMP: 100;

WICHITA JABRA  MOSUNNY   96  69  41 S15       29.92F HX 102
6HR MIN TEMP:  76; 6HR MAX TEMP:  96;

WICHITA MCCONL MOSUNNY   97  67  38 SW13      29.92F HX 101
WINFIELD       SUNNY     99  66  33 S17       29.93F HX 103
6HR MIN TEMP:  76; 6HR MAX TEMP:  99;

$$

KSZ007>012-019>026-033>040-048>060-102>105-231900-
NORTHEAST KANSAS

CITY           SKY/WX    TMP DP  RH WIND       PRES   REMARKS
CONCORDIA      PTSUNNY   89  70  53 S15       29.86S
6HR MIN TEMP:  75; 6HR MAX TEMP:  91;

EMPORIA        MOSUNNY   95  69  42 S13G22    29.91F HX 100
6HR MIN TEMP:  74; 6HR MAX TEMP:  95;

LAWRENCE       CLOUDY    91  73  55 S14       29.90F HX  99
6HR MIN TEMP:  77; 6HR MAX TEMP:  92;

MANHATTAN      PTSUNNY   98  70  40 S13       29.86F HX 105
6HR MIN TEMP:  78; 6HR MAX TEMP:  99;

MARYSVILLE     CLOUDY    95  72  46 SW13G21   29.85S HX 103
OLATHE IND     CLOUDY    90  74  59 S12       29.93F HX  99
6HR MIN TEMP:  77; 6HR MAX TEMP:  91;

OLATHE EXE     CLOUDY    89  76  65 S10       29.94F HX 100
6HR MIN TEMP:  75; 6HR MAX TEMP:  89;

SALINA         CLOUDY    99  67  35 S20G26    29.85F HX 103
6HR MIN TEMP:  80; 6HR MAX TEMP:  99;

TOPEKA BILLARD CLOUDY    92  71  50 S15       29.88F HX  98
6HR MIN TEMP:  79; 6HR MAX TEMP:  94;

TOPEKA FORBES  PTSUNNY   93  72  50 S12       29.90F HX 101
6HR MIN TEMP:  81; 6HR MAX TEMP:  93;

$$




USA.gov is the U.S. government's official web portal to all federal, state and local government web resources and services.